Regional Weather Roundup
Issued by NWS Cleveland, OH

Home | Current Version | Previous Version | Text Only | Print | Product List | Glossary Off
Versions: 1 2 3 4 5 6 7 8 9 10 11 12 13 14 15 16 17 18 19 20 21 22 23 24 25 26 27 28 29 30 31 32 33 34 35 36 37 38 39 40 41 42 43 44 45 46 47 48 49 50

000
ASUS41 KCLE 240010
RWRCLE
OHIO REGIONAL WEATHER ROUNDUP
NATIONAL WEATHER SERVICE WILMINGTON, OH
700 PM EST THU FEB 23 2017

NOTE: "FAIR" INDICATES FEW OR NO CLOUDS BELOW 12,000 FEET WITH NO
SIGNIFICANT WEATHER AND/OR OBSTRUCTIONS TO VISIBILITY.

OHZ001>008-015>018-024>027-034-035-043-044-240100-
   NORTHWEST OHIO

CITY           SKY/WX    TMP DP  RH WIND       PRES   REMARKS
DEFIANCE       FAIR      57  48  72 N5        29.76S
FINDLAY        FAIR      59  51  75 SE7       29.76S
TOLEDO EXPRESS FAIR      57  45  64 NE5       29.76F
TOLEDO EXEC    FAIR      59  48  67 E6        29.77F
LIMA           FAIR      58  54  86 NE3       29.76F
$$

OHZ009>014-019>023-028>033-038-089-240100-
   NORTHEAST OHIO

CITY           SKY/WX    TMP DP  RH WIND       PRES   REMARKS
CLE-HOPKINS    MOCLDY    59  49  69 NE5       29.82R
CLE-LAKEFRONT  MOCLDY    57  50  77 E3        29.79S
CUY CO. ARPT   MOCLDY    55  52  88 VRB6      29.81S
LORAIN-ELYRIA  MOCLDY    60  51  72 SW5       29.80R
ASHTABULA      FAIR      56  51  84 CALM      29.82S
AKRON-CANTON   MOCLDY    61  51  70 CALM      29.80S
WOOSTER        FAIR      56  51  84 CALM      29.80S
MANSFIELD      FAIR      57  53  86 N3        29.80R
YOUNGSTOWN     CLOUDY    61  52  72 N3        29.80S
$$

OHZ042-051>053-060>062-070>072-077>081-240100-
  SOUTHWEST OHIO

CITY           SKY/WX    TMP DP  RH WIND       PRES   REMARKS
CINC-COVINGTON CLOUDY    63  56  78 S7        29.77S
CINC-LUNKEN    CLOUDY    67  57  70 S6        29.77F
HAMILTON       CLOUDY    67  56  67 S6        29.77F
DAYTON         CLOUDY    64  54  69 S6        29.78S
WRIGHT-PAT AFB MOCLDY    63  57  81 SE3       29.77S
DAYTON GENERAL CLOUDY    63  54  72 S6        29.76F
WILMINGTON     CLOUDY    62  56  80 S8        29.79R
$$

OHZ036-037-039>041-045>050-054>059-063>069-073>076-082>088-240100-
  CENTRAL AND SOUTHEAST OHIO

CITY           SKY/WX    TMP DP  RH WIND       PRES   REMARKS
COLUMBUS       CLOUDY    63  59  87 CALM      29.79R THUNDER
OSU AIRPORT    TSTM      62  59  90 S5        29.79R FOG
BOLTON FIELD   TSTM      59  57  94 SW5G20    29.81R
RICKENBACK AFB CLOUDY    64  55  74 S6        29.79R
NEWARK         FAIR      63  54  72 CALM      29.78S
MARION         MOCLDY    60  55  83 N7        29.79S
LANCASTER      CLOUDY    67  54  63 S7        29.80S
ZANESVILLE     TSTM      61  56  83 CALM      29.81R
NEW PHILLY     CLOUDY    63  54  72 CALM      29.80S
$$




USA.gov is the U.S. government's official web portal to all federal, state and local government web resources and services.